Location: Unspecified
(0.0000°N, 0.0000°E)
Time: 05:17:06
(UTC+00:00)

deb West Ford - Pass Details

Date: 23 May 2026
Orbit: 2163 x 4941 km, 86.7° (Epoch: 8 June)

Event Time Altitude Azimuth Distance (km) Brightness Sun altitude
Exits shadow 00:56:05 24° 27° (NNE) 3,678 ? -64.8°
Drops below altitude 10° 00:59:45 10° 17° (NNE) 4,679 ? -64.3°
Sets 01:03:00 0° 12° (NNE) 5,680 ? -63.8°
